Regional Weather Roundup
Issued by NWS Sterling, VA

Home | Current Version | Previous Version | Graphics & Text | Print | Product List | Glossary On
Versions: 1 2 3 4 5 6 7 8 9 10 11 12 13 14 15 16 17 18 19 20 21 22 23 24 25 26 27 28 29 30 31 32 33 34 35 36 37 38 39 40 41 42 43 44 45 46 47 48 49 50
000
ASUS41 KLWX 311210
RWRLWX

REGIONAL WEATHER ROUNDUP
NATIONAL WEATHER SERVICE BALTIMORE MD/WASHINGTON DC
800 AM EDT THU JUL 31 2014

Note: "FAIR" indicates few or no clouds below 12,000 feet
with no significant weather and/or obstructions to visibility.
 TC=TEMPERATURE CELSIUS

 * =Non NWS site. Station does not report precipitation (e.g. rain,
    snow, etc.), thunder, or fog.

DCZ001-MDZ009-015-VAZ040>042-051-053>054-311300-
WASHINGTON METRO
  /KDAA//-FT BELVOIR

CITY           SKY/WX    TMP DP  RH WIND       PRES   REMARKS
WASHINGTON NAT MOSUNNY   71  60  68 SW5       30.11R
DULLES         MOSUNNY   63  59  87 SW3       30.10S
ANDREWS AFB    SUNNY     68  62  79 SW9       30.11R
QUANTICO       SUNNY     68  60  75 VRB3      30.11R
COLLEGE PARK*  SUNNY     66  61  82 CALM      30.10R
LEESBURG*      SUNNY     64  63  94 CALM      30.12R
MANASSAS*      SUNNY     63  61  94 CALM      30.11R
GAITHERSBURG*  SUNNY     64  57  77 NW5       30.14S

$$

MDZ006>007-011-014-311300-
BALTIMORE METRO

CITY           SKY/WX    TMP DP  RH WIND       PRES   REMARKS
BWI AIRPORT    MOSUNNY   66  59  78 CALM      30.09S
MD SCIENCE CTR   N/A     70  59  68 MISG      30.10R
MARTIN STATE   MOSUNNY   70  64  83 CALM      30.11R
ANNAPOLIS      SUNNY     69  61  75 CALM      30.10R
FORT MEADE*    SUNNY     59  57  94 CALM      30.12S

$$

MDZ012-015-019>023-311300-
MARYLAND EASTERN SHORE

CITY           SKY/WX    TMP DP  RH WIND       PRES   REMARKS
OCEAN CITY     SUNNY     72  67  84 SW5       30.13R
SALISBURY      SUNNY     70  62  76 S3        30.12R
BAY BRIDGE AP*   N/A     72  63  73 SW5       30.10S
CAMBRIDGE*     SUNNY     70  64  83 CALM      30.11R
EASTON*        SUNNY     72  66  83 CALM      30.14R

$$

MDZ017>025-311300-
SOUTHERN MARYLAND

CITY           SKY/WX    TMP DP  RH WIND       PRES   REMARKS
PATUXENT RIVER SUNNY     69  64  84 SW7       30.11R
ST INIGOES     SUNNY     72  63  73 S9        30.11R
LEONARDTOWN*   SUNNY     70  63  78 SW6       30.13R

$$

MDZ003>005-311300-
NORTH CENTRAL MARYLAND

CITY           SKY/WX    TMP DP  RH WIND       PRES   REMARKS
FREDERICK*     SUNNY     66  64  94 CALM      30.13R
HAGERSTOWN APT SUNNY     61  60  97 CALM      30.12R
WESTMINSTER*   SUNNY     64  63  94 CALM      30.11R

$$

MDZ501>502-311300-
WESTERN MARYLAND

CITY           SKY/WX    TMP DP  RH WIND       PRES   REMARKS
OAKLAND*       SUNNY     55 N/A N/A SW7       30.17R
CUMBERLAND*    CLOUDY    59  59 100 CALM      30.16S VSB<1/4

$$

VAZ025>031-311300-
SHENANDOAH VALLEY

CITY           SKY/WX    TMP DP  RH WIND       PRES   REMARKS
WINCHESTER*    SUNNY     63  59  88 W5        30.11R
STAUNTON*      SUNNY     59  55  85 CALM      30.16R

$$

WVZ021-048>050-054>055-311300-
EASTERN WEST VIRGINIA PANHANDLE

CITY           SKY/WX    TMP DP  RH WIND       PRES   REMARKS
MARTINSBURG    SUNNY     62  57  83 CALM      30.12R
PETERSBURG*    PTSUNNY   56  53  89 CALM      30.14R FOG

$$

VAZ036>039-050-311300-
CENTRAL FOOTHILLS

CITY           SKY/WX    TMP DP  RH WIND       PRES   REMARKS
CHARLOTTESVILL SUNNY     63  58  83 S3        30.12R
ORANGE*        SUNNY     63  59  88 S3        30.13R

$$

VAZ055>057-311300-
NORTH AND CENTRAL PIEDMONT

CITY           SKY/WX    TMP DP  RH WIND       PRES   REMARKS
FREDERICKSBRG* SUNNY     66  64  93 CALM      30.10R
STAFFORD*      SUNNY     63  63 100 CALM      30.15R

$$

NCZ024-NYZ072-PAZ021-071-VAZ022-071-311300-
OTHER REGIONAL OBSERVATIONS

CITY           SKY/WX    TMP DP  RH WIND       PRES   REMARKS
NEW YORK CITY  MOSUNNY   70  56  61 VRB3      30.13R
PHILADELPHIA   PTSUNNY   68  59  73 S6        30.11R
PITTSBURGH     CLOUDY    60  58  92 S5        30.08R
ROANOKE        PTSUNNY   62  55  77 W3        30.17R
RICHMOND       PTSUNNY   70  64  81 S5        30.12R
RALEIGH        PTSUNNY   69  65  86 CALM      30.12R

$$

ANZ530>537-311300-
MARINE OBSERVATIONS

STATION/POSITION TIME  TEMP    WIND        PRES
                       AIR SEA DIR/SP/G
                 (UTC) (F)     (DEG/KT/KT) (MB)
THOMAS PT LIGHT  1200   69 77  210/  8/  9 1019.9R
BALT KEY BRIDGE  1200   67     240/  5/  6 1018.9R
COVE POINT       1200   70     250/ 11/ 15 1019.3R
LEWISETTA        1200   70 77  230/  8/  9 1019.6R
SOLOMONS ISLAND  1200      79                N/A
PINEY POINT      1200          230/  8/  9   N/A

$$



USA.gov is the U.S. government's official web portal to all federal, state and local government web resources and services.